Wind_Speed
28 29 26 18 11 7 6 4 2 3 4 5 3 5 7 8 11 13 13 14 15 15 17 17 16 19 27 27 26 23 21 21 23 20 16 20 12 10 5 1 20 20 13 10
15 9 6 5 3 4 2 3 3 3 5 7 11 11 12 13 15 15 16 17 15 15 15 16 15 17 24 26 24 22 25 24 25 22 19 19 18 15 12 9 20 9 20 16
7 5 3 3 4 5 4 5 5 6 7 8 10 14 14 16 17 17 18 19 20 17 15 16 16 15 21 25 26 24 24 26 23 24 21 21 17 17 15 16 17 20 19 13
6 4 4 5 6 8 10 9 11 12 14 16 15 16 16 18 17 21 21 21 22 22 18 16 14 16 17 24 27 27 25 26 23 24 24 24 23 24 21 21 19 22 20 21
8 7 6 8 10 12 14 17 19 19 21 23 22 24 15 17 21 24 24 24 22 22 22 18 16 14 16 21 26 31 32 29 26 26 29 28 26 29 28 27 26 28 23 24
7 6 7 11 14 17 19 21 24 25 26 27 26 27 26 22 23 25 24 26 25 24 22 22 19 14 17 20 25 29 31 31 30 29 31 27 26 24 31 28 28 27 24 22
9 9 12 15 17 20 22 23 25 26 29 32 33 31 31 30 27 29 27 26 30 28 24 23 22 20 16 19 22 27 28 27 27 33 33 29 28 24 19 29 30 23 27 24
14 13 19 19 21 24 26 28 28 28 30 33 38 36 34 32 29 32 27 28 32 33 28 23 22 22 19 20 22 26 28 25 29 33 34 32 32 27 11 25 29 25 32 30
21 21 22 27 28 30 30 32 33 33 32 33 37 40 45 35 30 31 31 34 30 34 31 26 21 21 23 20 21 26 26 26 33 34 36 35 34 28 25 25 26 30 32 30
28 30 30 30 33 37 36 36 35 37 36 36 38 41 42 44 42 37 28 37 34 32 33 28 25 20 23 24 22 29 29 29 35 36 37 36 38 32 32 29 28 30 31 30
34 35 37 35 36 38 39 37 40 40 41 40 40 48 45 45 45 47 34 40 36 35 31 30 29 24 21 28 28 33 33 30 37 37 37 37 37 40 32 28 27 32 32 32
36 37 38 39 42 43 42 42 43 44 43 43 43 47 46 52 49 54 41 43 42 39 34 30 30 30 25 27 32 38 36 37 38 39 39 39 36 36 36 31 24 26 30 33
41 43 43 46 47 51 45 48 47 48 49 45 46 45 60 51 52 50 46 41 39 32 37 32 30 32 31 27 36 40 39 39 42 43 43 42 34 35 34 35 29 25 22 25
47 48 50 50 52 57 56 55 53 53 53 55 48 52 54 59 53 50 43 40 44 46 41 39 34 32 33 31 36 43 47 44 46 47 47 45 39 39 38 38 40 27 25 25
54 54 55 56 58 60 64 63 62 61 60 62 55 55 52 58 64 63 48 45 52 57 52 41 38 37 35 34 39 46 48 50 45 52 50 49 47 39 41 41 39 35 32 28
57 61 61 61 63 62 61 62 64 64 62 60 62 61 64 60 73 63 53 48 58 62 44 42 41 42 39 37 43 48 50 53 48 45 53 57 48 45 43 44 44 38 32 35
66 65 63 61 62 59 56 63 63 61 62 64 62 63 58 60 64 69 61 51 55 60 50 49 48 48 47 40 45 51 54 54 53 46 47 52 52 53 52 48 51 41 37 34
68 65 63 62 64 63 67 69 70 65 65 70 66 66 61 61 65 70 71 63 59 65 61 56 54 51 48 44 49 55 58 57 57 50 46 50 49 51 53 49 51 50 40 39
67 68 69 70 72 70 73 82 73 70 73 75 74 70 66 66 67 74 68 65 64 68 61 56 50 48 47 48 52 60 61 59 60 51 48 45 48 50 50 51 49 52 49 42
67 72 74 76 75 74 77 79 73 72 77 76 76 72 74 72 71 69 66 62 61 63 60 55 50 44 45 49 55 63 63 62 62 55 50 49 50 48 50 51 51 46 46 45
73 71 72 73 76 80 80 79 79 80 80 79 75 74 75 71 66 63 62 61 60 59 60 57 51 43 46 47 57 68 68 64 62 56 51 48 47 48 50 51 49 47 46 42
75 74 79 81 81 79 75 71 67 63 59 58 60 61 63 63 61 60 62 57 57 56 57 56 48 42 47 48 60 71 70 63 60 53 53 48 44 43 42 41 41 44 45 43
76 78 79 81 76 68 54 48 48 43 40 43 45 49 51 53 55 56 56 57 56 55 55 52 43 42 49 52 64 75 71 64 55 52 51 48 43 42 38 35 36 40 43 42
81 76 71 66 58 46 42 38 35 35 33 35 40 45 48 50 54 55 55 56 57 56 52 50 40 41 48 56 67 76 71 64 55 49 44 50 48 43 38 35 34 31 35 36
73 64 51 44 40 39 43 39 38 36 36 39 43 47 49 51 53 54 55 58 58 55 51 47 40 46 52 61 69 76 72 65 57 49 46 42 45 43 38 36 35 35 34 35
52 41 33 34 37 36 41 39 39 37 40 42 44 48 53 56 57 54 52 51 49 48 45 48 46 52 58 65 71 80 72 65 57 50 40 41 41 43 38 38 38 40 39 40
Wind_Direction
274 280 280 275 267 263 260 256 239 272 289 313 334 321 315 317 320 322 319 318 323 318 288 284 280 267 245 235 243 248 240 213 207 206 201 193 194 159 191 159 167 148 179 176
272 242 232 225 223 242 230 211 214 256 294 316 315 323 330 337 339 333 325 322 321 331 323 291 281 267 244 237 231 226 215 209 208 206 198 192 182 198 151 132 180 133 191 205
183 186 182 192 236 260 246 257 266 285 285 288 301 316 323 330 334 335 335 326 319 316 319 321 286 268 241 238 224 213 211 209 208 207 201 190 179 185 179 161 174 188 202 186
159 179 209 234 265 290 300 301 300 296 297 302 306 305 320 321 327 329 329 332 331 323 310 308 312 269 249 240 224 211 204 201 207 204 201 191 182 172 201 181 175 206 228 214
199 219 239 274 289 295 299 297 297 298 300 306 306 306 309 311 320 323 322 319 323 329 323 304 304 285 258 247 233 219 216 213 209 202 203 192 189 177 203 181 183 217 228 224
218 242 273 279 286 290 293 295 296 298 299 300 304 304 309 311 314 314 315 317 318 318 322 318 290 297 258 253 241 231 224 223 214 209 203 199 187 185 200 207 204 206 232 225
259 270 274 277 285 287 289 292 295 298 298 298 301 301 303 304 307 309 317 318 312 314 313 311 304 273 268 247 245 236 230 227 212 200 206 202 190 169 195 221 215 218 239 238
267 264 286 275 286 288 293 296 295 296 299 298 297 294 296 294 305 304 313 307 307 307 306 302 303 287 267 242 242 233 229 215 203 199 205 202 190 170 204 211 214 231 239 244
268 271 276 284 285 287 290 291 293 293 294 293 293 296 292 296 290 298 308 299 300 302 301 295 291 288 259 253 241 223 218 219 208 205 204 202 195 188 181 202 220 227 237 232
276 279 277 282 288 289 289 288 290 291 291 291 290 287 289 292 296 296 300 292 300 300 297 292 283 282 265 242 233 217 217 221 207 206 204 204 199 189 191 198 221 226 230 230
286 285 285 285 283 284 286 289 292 290 289 288 286 287 286 289 293 292 301 292 296 300 289 288 283 280 266 246 226 217 220 222 207 209 206 208 205 202 201 203 212 223 227 231
282 284 285 285 284 284 285 287 287 285 285 286 287 287 287 289 294 298 297 295 302 297 283 281 280 276 272 244 234 218 219 219 214 213 210 207 208 208 214 219 219 230 230 232
286 286 285 285 285 284 285 284 284 284 283 283 283 285 283 287 287 290 296 289 299 285 286 281 277 275 273 249 234 223 216 218 218 213 212 210 215 215 213 211 206 214 221 230
286 287 287 287 289 289 288 286 285 282 283 280 280 279 284 287 284 283 287 279 283 286 285 282 276 270 271 263 229 229 217 217 218 214 210 214 215 225 214 214 214 217 221 228
288 288 288 288 286 285 286 285 283 282 279 280 280 278 273 275 277 278 279 277 283 275 278 277 275 269 271 263 236 226 221 217 215 215 212 216 217 224 216 218 214 218 215 227
284 287 285 284 284 283 283 283 282 279 280 278 275 275 275 273 279 282 278 279 278 276 276 275 272 271 269 258 245 222 222 214 214 214 213 215 214 221 224 220 214 208 219 225
291 289 288 288 286 285 285 280 281 282 281 280 279 276 278 279 279 281 280 274 271 278 280 277 272 271 268 254 241 222 218 216 211 215 214 216 223 224 225 223 220 214 215 223
290 290 290 288 287 287 284 283 280 280 280 276 276 275 276 276 276 276 275 275 276 273 274 276 274 269 262 248 232 224 215 216 211 212 216 218 219 221 224 223 223 228 221 224
292 291 290 289 287 287 284 278 282 281 278 277 275 274 274 275 275 269 270 272 273 275 275 272 270 263 254 240 227 220 214 213 209 210 213 219 215 216 220 224 228 232 239 237
289 292 292 290 290 287 283 284 284 280 275 274 276 274 274 272 269 271 272 269 265 268 271 270 269 261 252 236 222 214 213 210 210 207 210 216 211 213 217 221 226 234 238 240
292 291 291 291 292 290 286 286 281 278 277 275 270 269 267 269 270 268 265 264 265 266 268 269 267 256 245 233 216 209 212 208 209 207 209 210 211 213 216 222 228 234 239 241
296 296 297 297 293 290 290 290 285 281 278 272 267 262 261 262 263 264 266 265 265 266 268 266 263 250 236 225 211 205 209 204 207 206 207 208 209 214 218 225 229 231 231 241
299 299 299 296 294 295 293 288 285 284 278 272 266 263 259 262 266 267 266 268 265 263 263 264 259 245 229 218 207 205 203 199 202 203 206 209 212 213 218 223 229 233 233 237
300 301 294 293 293 292 288 288 287 286 279 271 268 265 265 264 265 267 269 269 269 268 265 264 251 241 223 213 204 202 200 196 193 194 199 209 213 215 215 224 230 238 235 232
299 295 292 286 288 290 289 288 286 284 280 276 275 275 274 272 271 270 270 269 269 268 265 259 244 227 216 206 198 197 196 193 191 191 196 204 212 217 216 224 236 235 240 234
296 293 286 286 290 290 290 292 288 287 282 277 273 270 270 270 272 274 274 274 273 270 262 251 236 222 209 198 192 194 190 190 187 188 196 200 211 213 219 229 234 236 243 244
Height
10942 10942 10942 10941 10940 10941 10941 10942 10941 10941 10941 10940 10940 10939 10938 10936 10933 10929 10926 10923 10920 10918 10917 10916 10915 10916 10916 10922 10925 10930 10933 10936 10940 10946 10947 10951 10954 10959 10962 10962 10959 10963 10971 10974
10937 10937 10938 10938 10938 10939 10940 10940 10940 10940 10939 10938 10936 10936 10935 10933 10930 10927 10924 10920 10918 10916 10914 10912 10912 10910 10912 10916 10920 10924 10929 10931 10936 10940 10944 10948 10952 10956 10961 10961 10958 10954 10970 10975
10935 10936 10937 10937 10937 10937 10938 10938 10938 10938 10937 10936 10935 10933 10932 10930 10927 10926 10923 10919 10916 10915 10913 10910 10909 10908 10909 10912 10916 10919 10924 10928 10932 10937 10942 10945 10948 10952 10957 10962 10964 10967 10972 10975
10934 10935 10935 10935 10934 10934 10934 10935 10935 10935 10934 10933 10933 10931 10930 10927 10926 10923 10920 10918 10914 10912 10911 10908 10906 10907 10907 10908 10911 10915 10919 10924 10928 10933 10937 10942 10947 10950 10955 10961 10963 10969 10972 10973
10933 10932 10933 10933 10932 10932 10932 10932 10932 10931 10930 10929 10928 10926 10928 10926 10923 10919 10917 10914 10913 10911 10909 10909 10905 10903 10904 10906 10909 10911 10915 10919 10924 10928 10932 10937 10943 10947 10950 10957 10960 10963 10968 10970
10930 10931 10931 10931 10930 10929 10929 10928 10927 10926 10924 10923 10922 10920 10919 10921 10919 10916 10914 10911 10910 10908 10907 10905 10905 10902 10901 10902 10905 10908 10911 10915 10920 10925 10930 10934 10941 10944 10949 10953 10956 10960 10965 10968
10927 10928 10928 10927 10927 10926 10925 10925 10923 10922 10919 10915 10915 10914 10913 10912 10912 10911 10911 10909 10904 10904 10903 10902 10901 10901 10898 10899 10901 10903 10907 10910 10913 10920 10925 10930 10937 10941 10948 10950 10953 10958 10961 10967
10924 10925 10923 10923 10922 10921 10920 10918 10918 10917 10914 10910 10905 10906 10907 10906 10908 10904 10907 10904 10900 10897 10897 10898 10896 10895 10895 10895 10897 10898 10901 10906 10909 10915 10921 10926 10931 10937 10940 10945 10951 10955 10957 10961
10920 10920 10920 10917 10916 10915 10915 10912 10910 10909 10908 10906 10900 10895 10890 10900 10901 10901 10901 10894 10896 10890 10890 10890 10891 10890 10890 10890 10891 10894 10897 10901 10906 10911 10917 10921 10926 10931 10938 10945 10947 10948 10950 10953
10913 10913 10913 10912 10909 10905 10905 10904 10903 10900 10900 10898 10894 10889 10889 10885 10888 10889 10896 10884 10887 10885 10882 10882 10883 10884 10884 10885 10886 10890 10893 10896 10902 10907 10912 10915 10920 10926 10933 10938 10940 10940 10946 10947
10905 10904 10902 10903 10902 10899 10897 10896 10892 10892 10890 10890 10887 10875 10880 10880 10876 10873 10885 10877 10877 10876 10873 10873 10875 10876 10877 10880 10881 10884 10888 10892 10895 10902 10907 10911 10916 10922 10927 10931 10933 10936 10939 10939
10897 10895 10894 10893 10890 10888 10889 10886 10884 10883 10882 10880 10878 10868 10870 10861 10865 10857 10872 10864 10865 10865 10865 10864 10866 10868 10869 10871 10874 10876 10881 10886 10890 10895 10901 10906 10911 10917 10922 10926 10926 10929 10930 10935
10888 10885 10885 10882 10880 10874 10881 10877 10874 10870 10869 10871 10868 10868 10842 10861 10852 10852 10856 10855 10855 10855 10855 10855 10856 10858 10860 10862 10866 10868 10872 10877 10882 10888 10894 10899 10906 10912 10917 10920 10921 10922 10927 10928
10876 10874 10872 10871 10868 10860 10861 10860 10860 10857 10856 10853 10859 10854 10844 10829 10843 10843 10847 10844 10840 10840 10845 10846 10844 10848 10849 10852 10855 10861 10862 10867 10873 10879 10885 10892 10898 10903 10909 10914 10917 10918 10922 10924
10863 10862 10858 10856 10853 10848 10843 10841 10841 10840 10838 10836 10841 10837 10838 10823 10818 10822 10835 10833 10827 10823 10830 10834 10833 10835 10839 10840 10843 10848 10853 10856 10863 10869 10876 10883 10889 10895 10901 10908 10913 10915 10917 10918
10852 10846 10845 10843 10836 10834 10832 10824 10817 10818 10819 10820 10817 10820 10813 10814 10791 10811 10826 10822 10806 10803 10817 10818 10819 10821 10825 10827 10830 10834 10842 10846 10852 10858 10864 10873 10879 10886 10893 10901 10907 10911 10915 10918
10830 10827 10826 10824 10817 10816 10815 10803 10803 10803 10797 10794 10797 10794 10801 10798 10791 10777 10787 10803 10800 10792 10796 10799 10801 10805 10807 10812 10814 10821 10829 10836 10841 10849 10855 10862 10870 10877 10884 10891 10898 10905 10910 10914
10811 10808 10804 10804 10799 10800 10790 10784 10780 10785 10780 10770 10777 10775 10781 10780 10775 10766 10763 10776 10782 10776 10779 10783 10785 10787 10790 10795 10798 10807 10815 10823 10831 10838 10845 10853 10861 10868 10875 10883 10889 10894 10901 10907
10792 10788 10786 10781 10777 10778 10771 10750 10766 10764 10755 10748 10751 10754 10757 10759 10757 10743 10754 10757 10758 10753 10759 10763 10766 10767 10770 10775 10781 10791 10800 10811 10820 10828 10837 10844 10850 10860 10868 10874 10881 10885 10890 10896
10778 10768 10763 10758 10754 10751 10739 10730 10740 10736 10723 10725 10727 10732 10729 10730 10728 10730 10734 10739 10739 10737 10739 10742 10747 10750 10751 10757 10764 10776 10785 10797 10808 10818 10829 10836 10844 10852 10861 10866 10870 10876 10882 10887
10754 10755 10747 10740 10729 10721 10713 10711 10706 10701 10697 10694 10700 10699 10699 10702 10706 10708 10711 10715 10718 10719 10720 10723 10726 10731 10735 10739 10750 10760 10772 10787 10802 10813 10822 10830 10838 10845 10852 10858 10867 10871 10876 10880
10736 10730 10720 10711 10700 10693 10688 10683 10675 10671 10672 10668 10666 10671 10672 10676 10681 10686 10686 10694 10698 10701 10700 10702 10708 10713 10717 10722 10736 10749 10762 10777 10794 10808 10816 10826 10834 10840 10848 10854 10860 10864 10870 10874
10718 10710 10700 10683 10675 10670 10668 10662 10656 10655 10652 10649 10650 10651 10657 10660 10662 10665 10668 10670 10676 10679 10680 10682 10688 10693 10699 10708 10720 10734 10748 10768 10785 10801 10814 10823 10830 10838 10846 10853 10857 10862 10866 10870
10689 10688 10674 10663 10657 10656 10650 10650 10647 10643 10642 10640 10638 10639 10641 10643 10644 10646 10647 10648 10648 10650 10656 10659 10667 10674 10681 10694 10704 10723 10741 10759 10774 10788 10802 10811 10822 10832 10842 10849 10853 10857 10861 10864
10669 10659 10656 10649 10648 10644 10637 10637 10635 10634 10632 10629 10627 10624 10625 10624 10625 10626 10626 10626 10628 10631 10634 10639 10647 10654 10663 10677 10691 10715 10732 10750 10767 10781 10792 10806 10820 10829 10838 10843 10849 10854 10857 10862
10648 10646 10643 10638 10636 10635 10626 10624 10621 10621 10618 10615 10614 10611 10608 10604 10603 10605 10607 10609 10612 10613 10616 10619 10628 10636 10646 10663 10682 10702 10727 10745 10760 10775 10793 10804 10814 10822 10833 10836 10842 10847 10849 10851